Regional Weather Roundup
Issued by NWS Wakefield, VA

Home | Current Version | Previous Version | Text Only | Print | Product List | Glossary On
Versions: 1 2 3 4 5 6 7 8 9 10 11 12 13 14 15 16 17 18 19 20 21 22 23 24 25 26 27 28 29 30 31 32 33 34 35 36 37 38 39 40 41 42 43 44 45 46 47 48 49 50
000
ASUS41 KAKQ 010815
RWRAKQ

REGIONAL WEATHER ROUNDUP
NATIONAL WEATHER SERVICE WAKEFIELD VA
400 AM EDT SAT AUG 01 2015

Note: "fair" indicates few or no clouds below 12,000 feet with no
significant weather and/or obstructions to visibility. * = Denotes
station may not report precipitation (e.g., rain,snow,etc.),
thunder or fog.

VAZ042-051-052>054-056-010900-
NORTHERN VIRGINIA

CITY           SKY/WX    TMP DP  RH WIND       PRES   REMARKS
WASH NATIONAL  PTCLDY    75  65  70 S5        29.88S
DULLES         MOCLDY    69  65  86 CALM      29.88F
FORT BELVOIR   PTCLDY    65  64  95 CALM      29.87F
QUANTICO       NOT AVBL
FREDERICKSBRG* CLEAR     69  69 100 CALM      29.88S
STAFFORD*      CLEAR     62  61  96 CALM      29.93S
WARRENTON      CLEAR     65  65 100 CALM      29.89S
CULPEPER*      CLEAR     62  62 100 CALM      29.90F
MANASSAS*      PTCLDY    66  64  94 CALM      29.89S
LEESBURG*      CLEAR     70  66  88 SW3       29.89S
WINCHESTER     CLEAR     68  61  77 SW7       29.90S
FRONT ROYAL*   FAIR      64  61  88 S6        29.90F
LURAY*         FAIR      64  63  94 CALM      29.94S
$$

VAZ048-049-060>072-079>083-010900-
CENTRAL AND SOUTH CENTRAL VIRGINIA

CITY           SKY/WX    TMP DP  RH WIND       PRES   REMARKS
RICHMOND       CLEAR     71  63  75 W5        29.89F
CHESTERFIELD*  FAIR      72  55  56 W5        29.91F
PETERSBURG*    PTCLDY    64  64 100 CALM      29.91S
HANOVER        CLEAR     64  63  96 CALM      29.91F
TAPPAHANNOCK*  CLEAR     65  63  90 CALM      29.89F
QUINTON*       FAIR      65  65  98 CALM      29.89S
CHARLOTTSVILLE CLEAR     69  60  73 W3        29.92S
GORDONSVILLE*  FAIR      63  63 100 CALM      29.90F
ORANGE*        CLEAR     68  63  83 CALM      29.92S
LOUISA*        CLEAR     68  63  83 W3        29.90S
BUMPASS*       FAIR      64  62  96 CALM      29.90S
FARMVILLE*     CLEAR     62  62 100 CALM      29.92S
CREWE*         FAIR     N/A N/A N/A NW6       29.92S
FORT PICKETT*  FAIR      65  62  91 W8        29.92F
CHASE CITY*    FAIR      67  67 100 CALM      29.93F
CLARKSVILLE*   FAIR      66  63  88 CALM      29.93S
SOUTH HILL*    CLEAR     62  62  97 CALM      29.98F
LAWRENCEVILLE* FAIR      64  64 100 CALM      29.92S
EMPORIA*       CLEAR     63  63 100 CALM      29.92F
$$

VAZ088>098-010900-
SOUTHEAST VIRGINIA

CITY           SKY/WX    TMP DP  RH WIND       PRES   REMARKS
NORFOLK        CLEAR     72  65  78 SW5       29.89F
VIRGINIA BEACH CLEAR     73  65  75 SW5       29.89F
NORFOLK NAVAL  PTCLDY    73  66  78 S5        29.90F
WEST POINT*    CLEAR     69  66  90 CALM      29.90F
SALUDA*        FAIR      71  67  89 SW5       29.88S
NEWPORT NEWS   CLEAR     74  66  76 SW5       29.89F
LANGLEY AFB    CLEAR     71  68  90 SW5       29.89F
FORT EUSTIS    CLEAR     76  67  75 S5        29.88S
WILLIAMSBURG*  CLEAR     75  70  83 CALM      29.90F
HR EXEC AP*    FAIR      64  61  88 W3        29.92F
FRANKLIN*      CLEAR     70  67  92 CALM      29.91S
WAKEFIELD      CLEAR     69  66  90 CALM      29.90F
$$

VAZ020-022-025-037-045-010900-
WEST CENTRAL AND SOUTHWEST VIRGINIA

CITY           SKY/WX    TMP DP  RH WIND       PRES   REMARKS
STAUNTON*      CLEAR     63  59  88 CALM      29.98S
WAYNESBORO*    FAIR      61  58  91 CALM      29.98S
HOT SPRINGS VA CLEAR     63  56  78 W14       30.07S
LYNCHBURG      CLEAR     60  59  96 CALM      29.97S
DANVILLE       CLEAR     66  64  93 CALM      29.95F
SOUTH BOSTON*  FAIR      64  63  95 CALM      29.94S
MARTINSVILLE   CLEAR     59  59 100 CALM      30.00F
ROANOKE        CLEAR     67  58  72 W3        30.00F
BLACKSBURG     CLEAR     59  59  99 CALM      30.07S
DUBLIN*          N/A     63  60  90 SW5       30.06S
MARION*        CLEAR     58  56  94 W6        30.10F
HILLSVILLE*    CLEAR     59  56  90 W3        30.06F
RICHLANDS*     FAIR      61  59  94 CALM      30.08F
WISE*          CLEAR     63  55  77 CALM      30.10F
ABINGDON*      CLEAR     60  57  90 CALM      30.07S
$$

MDZ021>025-VAZ099-100-010900-
SOUTHERN MARYLAND AND THE DELMARVA PENINSULA

CITY           SKY/WX    TMP DP  RH WIND       PRES   REMARKS
PATUXENT RIVER CLEAR     71  64  78 SW7       29.87F
BAY BRIDGE APT   N/A     77  63  61 SW5       29.86F
LEONARDTOWN    CLEAR     68  63  83 CALM      29.89F
DOVER          CLEAR     72  68  89 SW8       29.83F
GEORGETOWN     CLEAR     69  65  86 SW3       29.87F
EASTON         CLEAR     75  68  77 W3        29.90F
CAMBRIDGE      CLEAR     70  64  83 CALM      29.86F
SALISBURY      CLEAR     70  67  90 CALM      29.87F
OCEAN CITY     CLEAR     73  65  75 W7        29.86F
WALLOPS ISLAND CLEAR     74  68  81 SW7       29.88F
ACCOMACK*      CLEAR    N/A N/A N/A SW5       29.88F
$$

NCZ012>017-030>032-010900-
NORTH CENTRAL AND EASTERN NORTH CAROLINA

CITY           SKY/WX    TMP DP  RH WIND       PRES   REMARKS
ROANOKE RAPIDS FAIR      64  63  94 CALM      29.91F
RALEIGH        PTCLDY    68  65  90 CALM      29.93F
ELIZABETH CITY CLEAR     71  66  84 S7        29.90F
AHOSKIE*       CLEAR     67  65  96 CALM      29.91S
EDENTON*       PTCLDY    70  66  88 CALM      29.92R
CURRITUCK*     CLEAR     71  67  88 CALM      29.91S
KILL DEVIL HLS CLEAR     75  65  70 CALM      29.90S
MANTEO         PTCLDY    74  66  75 CALM      29.91S
CAPE HATTERAS  MOCLDY    77  71  82 E3        29.91S
TARBORO*         N/A     70  68  95 CALM      29.92S FOG
GOLDSBORO      CLEAR     73  71  91 NW2       29.88F
WASHINGTON     CLEAR     72  71  96 CALM      29.92R
GREENVILLE     CLEAR     72  70  94 CALM      29.93S FOG
NEW BERN       CLEAR     75  72  90 CALM      29.91S
WILMINGTON     PTCLDY    76  74  93 W6        29.89F
$$

VAZ048-010900-
ELSEWHERE

CITY           SKY/WX    TMP DP  RH WIND       PRES   REMARKS
HARRISBURG PA  PTCLDY    71  63  75 SE6       29.83F
BALTIMORE      PTCLDY    71  63  75 CALM      29.86S
ANNAPOLIS      CLEAR     74  63  68 SW7       29.85F
ANDREWS AFB    CLEAR     71  64  79 SW6       29.87F
PHILADELPHIA   MOCLDY    75  66  73 SW7       29.83F
HENDERSON NC   CLEAR     66  61  83 CALM      29.94S
GREENSBORO     CLEAR     69  60  73 CALM      29.96F
ROCKY MOUNT    PTCLDY    68  65  90 CALM      29.91F
$$

VAZ100-010900-
MARINE

STATION/POSITION TIME  TEMP    WIND        PRES    WAVE   SWELL
                       AIR SEA DIR/SP/G            HT/PER HT/PER
                 (UTC) (F)     (DEG/KT/KT) (MB)    (FT/S) (FT/S)
BRANDYWINE LGT   0700   76 76  260/ 14/ 16 1011.3F
CAPE MAY NJ      0700   76 76  250/ 10/ 11 1010.8F
LEWES DE         0700   74 75  250/  7/ 10 1011.1F
15NM E FENWICK I 0750   78 79  240/ 10/ 12 1011.2F   2/ 9   2/ 9
OCEAN-CITY-INLET 0700   74 75  280/  7/  8 1010.7F
WACHAPREAGUE VA  0718   75 84  250/  4/  5 1012.1F
THOMAS POINT MD  0800   78 82  270/ 11/ 12 1011.5F
GOOSES REEF MD   0800   78 82  270/ 10/ 12 1012.4F
COVE POINT MD    0700   78     260/  9/ 11 1012.4F
SOLOMONS ISLAND  0700      83                N/A
BISHOPS HEAD MD  0700   82 82  240/ 12/ 13 1010.8F
PINEY POINT MD   0700          250/  5/  8   N/A
POTOMAC MD       0800   80 83  260/ 10/ 12 1010.4F   1/ 2
CAMBRIDGE MD     0700   76 85  220/  3/  5 1010.8F
LEWISETTA VA     0700   77 83  260/  7/  8 1011.5F
RAPPAHANNOCK LGT 0700          210/ 12/ 13 1012.4F
STINGRAY PT      0800   79 83  240/ 12/ 16 1011.9F   1
YORK RVR RNG VA  0700   79     230/ 12/ 14 1011.6F
YORKTOWN VA      0700   75 83  220/  8/ 10 1011.9F
JAMESTOWN VA     0800   75 85  210/ 10/ 12   N/A
DOMINION TERM VA 0700   79     220/ 10/ 12 1012.2F
KIPTOPEKE VA     0700      82  230/ 12/ 13   N/A
CHES BAY BRIDGE  0700   78 80  200/  9/ 11 1011.9F
CAPE HENRY VA    0700   76     200/  7/ 10   N/A
CHESAPEAKE LGHT  0700   79     230/ 11/ 12 1013.2F
WILLOUBY STN VA  0700   79     220/ 11/ 13 1013.1F
CAPE HENRY BUOY  0728      81                N/A     2/ 9
1ST LANDING BUOY 0800      79              1011.9F   1
CAPE CHARLES BUO 0726      80                N/A     2/10   2/10
OFFSHORE WE BUOY 0711      82                N/A     3/ 8   3/ 8
64NM E OF VA BCH 0750   81 81  240/  8/  8 1012.1F   3/ 9   3/ 9
DUCK PIER NC     0700   79 67  170/  6/  8 1011.9F
44100 DUCK FRF   0724      80                N/A     3/ 8
44056 DUCK FRF   0711      79                N/A     2/ 9
OREGON INLET NC  0700   78 80  130/  3/  4 1012.7F
HATTERAS NC      0700   79 81   80/  2/  4 1012.3F
DIAMOND SHLS NC  0750   82 85  150/  6/ 10 1012.8S   4/ 8   5/ 8


USA.gov is the U.S. government's official web portal to all federal, state and local government web resources and services.